Weather Roundup
Issued by NWS

Home | Current Version | Previous Version | Text Only | Print | Product List | Glossary On
Versions: 1 2 3 4 5 6 7 8 9 10 11 12 13 14 15 16 17 18 19 20 21 22 23 24 25 26 27 28 29 30 31 32 33 34 35 36 37 38 39 40 41 42 43 44 45 46 47 48 49 50
000
NZUS93 KARX 261459
HRRWXR

CURRENT HOURLY OBSERVATIONS ACROSS
MUCH OF THE UPPER MISSISSIPPI VALLEY
NATIONAL WEATHER SERVICE LA CROSSE WI
900 AM CST SUN FEB 26 2017


...SOUTHEAST MINNESOTA...


CITY           SKY/WX    TMP DP  RH WIND       PRES   REMARKS
ROCHESTER      SUNNY     20  16  84 SW12      29.78R WCI   8
ROCHESTER/MAYO FAIR      26  18  72 SW7       29.78S WCI  18
WINONA         SUNNY     30  19  64 SW8       29.81R WCI  23
AUSTIN         SUNNY     21  16  79 SW9       29.80R WCI  11
ALBERT LEA     SUNNY     21  18  86 SW10G17   29.79R WCI  10
DODGE CENTER   NOT AVBL
PRESTON        SUNNY     26  18  73 SW14      29.79R WCI  14
OWATONNA       CLOUDY    21  16  79 SW10      29.77S WCI  10
FARIBAULT      CLOUDY    19  16  86 S6        29.79R WCI  11
$$

...ELSEWHERE IN MINNESOTA...


CITY           SKY/WX    TMP DP  RH WIND       PRES   REMARKS
MINNEAPOLIS    CLOUDY    26  18  71 SW9       29.76R WCI  17
INTNL FALLS    SUNNY      9   0  67 NW9       29.71R WCI  -4
DULUTH         SNOW      25  22  88 SW10      29.61S VSB 1/2 WCI  15
RED WING       SUNNY     25  16  68 W9        29.78R WCI  15
REDWOOD FALLS  CLOUDY    30  22  72 W15       29.78R WCI  19
MANKATO          N/A     21  17  84 S9        29.79R WCI  11
WORTHINGTON    SUNNY     22  17  81 W15       29.80R WCI   9
FAIRMONT       SUNNY     23  17  78 W15       29.80R WCI  10
$$

...SOUTHWEST WISCONSIN...


CITY           SKY/WX    TMP DP  RH WIND       PRES   REMARKS
LA CROSSE      PTSUNNY   32  21  64 S5        29.81R WCI  27
PRAIRIE DU CHI CLOUDY    32  19  58 SW10      29.85R WCI  24
BOSCOBEL       SUNNY     32  19  58 SW12      29.86R WCI  23
LONE ROCK      NOT AVBL
PLATTEVILLE    SUNNY     32  23  70 SW16      29.87R WCI  21
FORT MC COY    SUNNY     30  20  64 SW5       29.80F WCI  25
MAUSTON-NEW LI PTSUNNY   29  19  66 S9        29.79S WCI  21
VIROQUA        FAIR      29  20  69 SW13G20   29.79S WCI  19
WIS DELLS      PTSUNNY   29  20  69 SW12G17   29.81S WCI  19
$$

...ELSEWHERE IN WISCONSIN...


CITY           SKY/WX    TMP DP  RH WIND       PRES   REMARKS
MILWAUKEE      CLOUDY    32  18  56 SW16G24   29.91F WCI  21
MADISON        PTSUNNY   30  19  63 S13G18    29.85F WCI  20
GREEN BAY      CLOUDY    29  20  69 S13G22    29.82F WCI  19
EAU CLAIRE     NOT AVBL
BLACK RVR FLS  FAIR      30  19  63 SW5       29.77S WCI  25
MEDFORD        CLOUDY    23  16  75 SW10      29.70S WCI  12
WAUSAU         MOSUNNY   25  17  72 S15G22    29.72F WCI  13
WIS RAPIDS     SUNNY     27  19  72 SW15G22   29.78F WCI  15
MARSHFIELD     SUNNY     24  16  71 SW13      29.72F WCI  12
RICE LAKE      CLOUDY    26  20  77 SW9       29.73S WCI  17
$$

...NORTHEAST IOWA...


CITY           SKY/WX    TMP DP  RH WIND       PRES   REMARKS
WATERLOO       SUNNY     31  23  72 SW16      29.87R WCI  20
DUBUQUE        SUNNY     30  21  69 SW18      29.87R WCI  18
DECORAH        SUNNY     30  21  69 VRB6G14   29.81S WCI  24
MASON CITY     SUNNY     24  18  77 SW16      29.84R WCI  11
CHARLES CITY   SUNNY     27  21  80 SW15      29.84S WCI  15
OELWEIN        SUNNY     30  25  80 W15G22    29.86R WCI  19
$$

...ELSEWHERE IN IOWA...


CITY           SKY/WX    TMP DP  RH WIND       PRES   REMARKS
DES MOINES     MOSUNNY   35  24  64 SW9       29.91R WCI  28
IOWA CITY      SUNNY     35  21  56 SW12      29.95R WCI  27
FORT DODGE     SUNNY     25  18  74 SW7       29.86S WCI  17
MARSHALLTOWN   SUNNY     32  25  75 SW16      29.89R WCI  21
CEDAR RAPIDS   SUNNY     33  22  63 SW16      29.90R WCI  23
$$

...NORTHERN ILLINOIS...


CITY           SKY/WX    TMP DP  RH WIND       PRES   REMARKS
CHICAGO-OHARE  PTSUNNY   33  16  49 S17G26    29.99S WCI  22
CHICAGO-MIDWAY CLOUDY    32  15  49 S20G26    30.02S WCI  20
MOLINE         MOSUNNY   36  19  50 SW10      29.96R WCI  28
ROCKFORD       CLOUDY    33  20  58 S17       29.94F WCI  22
PEORIA         CLOUDY    33  18  53 S17       30.04S WCI  22
$$

NOTE: "FAIR" INDICATES FEW OR NO CLOUDS BELOW 12,000 FEET WITH NO
SIGNIFICANT WEATHER AND/OR OBSTRUCTIONS TO VISIBILITY. WIND
SPEEDS ARE IN MILES-PER-HOUR.




USA.gov is the U.S. government's official web portal to all federal, state and local government web resources and services.